This is the latest recevied weather packets stored in our database for station/object KD2DXJ. If no packets are shown the sender has not sent any weather packets the latest 10 day(s).
| Time | Temp. | Humidity | Pressure | Rain* | Wind** | Luminosity | Snow |
|---|---|---|---|---|---|---|---|
| 1778007028 | 20.56° C | 61% | 1002.9 hPa | 0 mm | - | 205 W/m² | - |
| 1778006725 | 20.56° C | 64% | 1002.8 hPa | 0 mm | - | 169 W/m² | - |
| 1778006421 | 20.56° C | 61% | 1002.7 hPa | 0 mm | - | 289 W/m² | - |
| 1778006118 | 21.11° C | 64% | 1002.7 hPa | 0 mm | - | 648 W/m² | - |
| 1778005816 | 21.11° C | 63% | 1002.4 hPa | 0 mm | - | 490 W/m² | - |
| 1778005512 | 20.56° C | 66% | 1002.4 hPa | 0 mm | - | 291 W/m² | - |
| 1778005209 | 20.56° C | 68% | 1002.5 hPa | 0 mm | - | 267 W/m² | - |
| 1778004905 | 20° C | 71% | 1002.5 hPa | 0 mm | - | 587 W/m² | - |
| 1778004603 | 19.44° C | 73% | 1002.5 hPa | 0 mm | - | 549 W/m² | - |
| 1778004298 | 18.89° C | 79% | 1002.6 hPa | 0 mm | - | 375 W/m² | - |
| 1778003996 | 18.33° C | 81% | 1002.7 hPa | 0 mm | - | 588 W/m² | - |
| 1778003691 | 18.33° C | 79% | 1002.6 hPa | 0 mm | - | 570 W/m² | - |
| 1778003388 | 17.78° C | 84% | 1002.8 hPa | 0 mm | - | 559 W/m² | - |
| 1778003085 | 16.67° C | 84% | 1002.8 hPa | 0 mm | - | 603 W/m² | - |
| 1778002781 | 16.11° C | 89% | 1002.5 hPa | 0 mm | - | 678 W/m² | - |
| 1778002478 | 15.56° C | 92% | 1002.8 hPa | 0 mm | - | 343 W/m² | - |
| 1778002175 | 15° C | 93% | 1003 hPa | 0 mm | - | 55 W/m² | - |
| 1778001874 | 15° C | 92% | 1002.9 hPa | 0 mm | - | 59 W/m² | - |
| 1778001572 | 15.56° C | 93% | 1003.1 hPa | 0 mm | - | 70 W/m² | - |
| 1778001270 | 15.56° C | 93% | 1003 hPa | 0 mm | - | 62 W/m² | - |
| 1778000966 | 15.56° C | 93% | 1003.1 hPa | 0 mm | - | 61 W/m² | - |
| 1778000663 | 15.56° C | 93% | 1002.9 hPa | 1.27 mm | - | 89 W/m² | - |
| 1778000359 | 15.56° C | 92% | 1002.6 hPa | 1.27 mm | - | 64 W/m² | - |
| 1778000055 | 15.56° C | 93% | 1002.7 hPa | 1.78 mm | - | 70 W/m² | - |
| 1777999750 | 15.56° C | 91% | 1002.6 hPa | 1.78 mm | - | 55 W/m² | - |
* Rain latest hour (hover to see other rain measurements)
** Current wind speed in m/s (hover to see current wind gust speed)